weather.gov     
National Weather Service

Regional Weather Roundup
NWS Homepage
This page is being discontinued on March 12, 2014.
The same data is available at this site. Please update your bookmarks.
Thank you, and we apologize for the inconvenience.
Please send an email to SR-SRH.Webmaster@noaa.gov with any concerns.


Current Version
Previous Version:    01  02  03  04  05  06  07  08  09  10  11  12  13  14  15  16  17  18  19  20  21  22  23  24  25  26  27  28  29  30  
   31  32  33  34  35  36  37  38  39  40  41  42  43  44  45  46  47  48  49  50  51  52  53  
[Printable]
430
ASUS41 KGYX 211710
RWRGYX
WEATHER ROUNDUP FOR MAINE AND NEW HAMPSHIRE
NATIONAL WEATHER SERVICE GRAY ME
1200 PM EST SUN DEC 21 2014

MEZ002-005-006-010-012-015-018-020-021-024-026-027-029-211800-
MAINE

CITY           SKY/WX    TMP DP  RH WIND       PRES   REMARKS
PORTLAND       FLURRIES  30  23  75 NW9       30.34F
SANFORD        PTSUNNY   28  19  69 N7        30.32F
BAR HARBOR     CLOUDY    34  28  80 N6        30.33F
WISCASSET      CLOUDY    30  22  72 VRB3      30.35F
ROCKLAND       CLOUDY    34  28  80 N7        30.32F
FRYEBURG       CLOUDY    26  17  68 VRB3      30.33F
LEWISTONAUBURN CLOUDY    27  19  74 NW5       30.32F
AUGUSTA        CLOUDY    28  21  75 N7        30.33F
WATERVILLE     CLOUDY    28  19  69 NE5       30.30F
BANGOR         CLOUDY    28  24  85 N6        30.34F
GREENVILLE       N/A     23  21  92 E5        30.24F
MILLINOCKET    CLOUDY    25  22  88 NE3       30.35F
HOULTON        CLOUDY    25  21  85 E6        30.33F
PRESQUE ISLE   CLOUDY    21  16  79 N3        30.34F
FRENCHVILLE    CLOUDY    18  16  92 S6        30.30F
CARIBOU        CLOUDY    21  18  88 SW5       30.33F
$$

NHZ002-005-008-009-011-012-014-211800-
NEW HAMPSHIRE

CITY           SKY/WX    TMP DP  RH WIND       PRES   REMARKS
PORTSMOUTH     CLOUDY    29  22  75 N9        30.30F
ROCHESTER      CLOUDY    31  22  69 N8        30.31F
NASHUA         CLOUDY    32  24  72 CALM      30.32F
MANCHESTER     CLOUDY    31  24  75 NW7       30.30F
CONCORD        LGT SNOW  30  27  88 NW6       30.31F FOG
LACONIA        CLOUDY    27  21  80 E3        30.29F
PLYMOUTH       LGT SNOW  29  27  90 CALM      30.31F
BERLIN         CLOUDY    19  15  84 CALM      30.28F
WHITEFIELD     LGT SNOW  23  18  81 CALM      30.29F
JAFFREY        CLOUDY    30  24  78 N5        30.26F
KEENE          CLOUDY    30  28  93 NW3       30.30F
LEBANON        LGT SNOW  27  23  85 CALM      30.31F FOG
MT WASHINGTON  SNOW      12  12 100 W20         N/A  VSB 1/8 WCI  -6
$$

VTZ005-007-008-211800-
VERMONT

CITY           SKY/WX    TMP DP  RH WIND       PRES   REMARKS
ST JOHNSBURY     N/A     22  17  81 MISG      30.30F
MONTPELIER     CLOUDY    21  17  84 CALM      30.31F
BURLINGTON     CLOUDY    24  19  81 CALM      30.35F
$$

MAZ007-012-024-CTZ003-RIZ002-NYZ038-NYZ072-211800-
SOUTHERN NEW ENGLAND AND NY

CITY           SKY/WX    TMP DP  RH WIND       PRES   REMARKS
BOSTON         FLURRIES  32  25  75 N7        30.31F
WORCESTER      LGT SNOW  28  26  92 NE7       30.25F FOG
NANTUCKET      CLOUDY    44  35  70 NE8       30.25F
PROVIDENCE     LGT SNOW  33  31  92 N10       30.29F VSB 1
HARTFORD       LGT SNOW  34  28  80 N7        30.29F
ALBANY         FLURRIES  29  23  78 N6        30.34F
NEW YORK CITY  CLOUDY    33  27  78 N7        30.30F
$$

ANZ081-ANZ082-ANZ150-NHZ014-MEZ023>029-211800-
COASTAL MARINE OBSERVATIONS

STATION/POSITION TIME  TEMP    WIND        PRES    WAVE
                       AIR SEA DIR/SP/G            HT/PER
                 (UTC) (F)     (DEG/KT/KT) (MB)    (FT/S)
MOUNT DESERT ROC 1700   37                 1025.5F
MATINICUS ROCK   1700           40/ 13/ 15 1025.8F
PORTLAND WX BUOY 1650   29 43  360/ 12/ 14 1026.7F   2/ 5
WELLS            1600   27 39  360/  8/ 10 1026.8F
ISLE OF SHOALS   1700   30      10/ 14/ 15 1025.7F
JEFFREYS LEDGE   1621      49                N/A     4/ 5
CASHES LEDGE BUO 1650   40 48   40/  8/ 12 1025.3F   3/ 5
$$

.............KEY..............
   WCI - WIND CHILL
   TC  - TEMPERATURE IN CELSIUS
   VSB - VISIBILITY IN MILES
   HX  - HEAT INDEX
   FAIR- INDICATES FEW OR NO CLOUDS BELOW 12,000 FT, WITH NO
         SIGNIFICANT WEATHER AND/OR OBSTRUCTIONS TO VISIBILITY.






U.S. Dept. of Commerce
NOAA National Weather Service
1325 East West Highway
Silver Spring, MD 20910
E-mail: w-nws.webmaster@noaa.gov
Page last modified: May 16, 2007
NATIONAL WEATHER SERVICE: for Safety, for Work, for Fun - FOR LIFE